When you browse on this site, cookies collect data to enhance your experience and personalize the content and advertising you see.
Visit our Privacy Policy to learn more. By continuing to use the site, you agree to this use of cookies and data.
  • In Hungary
  • List of Countries
  • For 7 days
  • Water Temperature
  • Satellite Maps
  • Weather Map
  • News
  • Weather Widgets
  • user-avatar
    Login

    Hourly Weather Las Tablas

    Today, 17 January, Thursday

    Time Temperature Precipitation Wind Pressure Humidity
    00:00 +26°C° 0 mm 9 mps 754 mmHg 77%
    01:00 +26°C° 0 mm 9 mps 753 mmHg 77%
    02:00 +26°C° 0 mm 9 mps 753 mmHg 77%
    03:00 +26°C° 0 mm 9 mps 753 mmHg 78%
    04:00 +26°C° 0 mm 9 mps 753 mmHg 78%
    05:00 +26°C° 0 mm 9 mps 753 mmHg 78%
    06:00 +26°C° 0 mm 9 mps 754 mmHg 78%
    07:00 +26°C° 0 mm 9 mps 754 mmHg 79%
    08:00 +27°C° 0 mm 9 mps 754 mmHg 74%
    09:00 +28°C° 0 mm 10 mps 754 mmHg 70%
    10:00 +29°C° 0 mm 10 mps 755 mmHg 65%
    11:00 +31°C° 0 mm 10 mps 754 mmHg 63%
    12:00 +32°C° 0 mm 10 mps 754 mmHg 60%
    13:00 +33°C° 0 mm 9 mps 753 mmHg 58%
    14:00 +32°C° 0 mm 9 mps 752 mmHg 58%
    15:00 +32°C° 0 mm 10 mps 752 mmHg 59%
    16:00 +32°C° 0 mm 10 mps 751 mmHg 60%
    17:00 +29°C° 0 mm 10 mps 751 mmHg 63%
    18:00 +28°C° 0 mm 9 mps 751 mmHg 67%
    19:00 +27°C° 0 mm 9 mps 751 mmHg 71%
    20:00 +27°C° 0 mm 9 mps 752 mmHg 73%
    21:00 +27°C° 0 mm 9 mps 752 mmHg 74%
    22:00 +26°C° 0 mm 9 mps 753 mmHg 76%
    23:00 +26°C° 0 mm 9 mps 753 mmHg 77%

    Tomorrow, 18 January, Friday

    Time Temperature Precipitation Wind Pressure Humidity
    00:00 +26°C° 0 mm 9 mps 753 mmHg 77%
    01:00 +26°C° 0 mm 9 mps 753 mmHg 78%
    02:00 +26°C° 0 mm 9 mps 752 mmHg 79%
    03:00 +26°C° 0 mm 9 mps 752 mmHg 79%
    04:00 +26°C° 0 mm 9 mps 752 mmHg 79%
    05:00 +26°C° 0 mm 8 mps 752 mmHg 80%
    06:00 +26°C° 0 mm 8 mps 752 mmHg 80%
    07:00 +26°C° 0 mm 8 mps 752 mmHg 81%
    08:00 +27°C° 0 mm 8 mps 753 mmHg 76%
    09:00 +28°C° 0 mm 8 mps 753 mmHg 72%
    10:00 +29°C° 0 mm 9 mps 753 mmHg 67%
    11:00 +31°C° 0 mm 9 mps 753 mmHg 65%
    12:00 +32°C° 0 mm 9 mps 752 mmHg 63%
    13:00 +32°C° 0 mm 9 mps 752 mmHg 61%
    14:00 +32°C° 0 mm 9 mps 751 mmHg 61%
    15:00 +32°C° 0 mm 9 mps 751 mmHg 61%
    16:00 +32°C° 0 mm 9 mps 750 mmHg 61%
    17:00 +31°C° 0 mm 9 mps 750 mmHg 65%
    18:00 +29°C° 0 mm 8 mps 751 mmHg 69%
    19:00 +27°C° 0 mm 8 mps 751 mmHg 72%
    20:00 +27°C° 0 mm 8 mps 751 mmHg 75%
    21:00 +27°C° 0 mm 8 mps 752 mmHg 77%
    22:00 +27°C° 0 mm 7 mps 752 mmHg 79%
    23:00 +27°C° 0 mm 7 mps 752 mmHg 80%

    Day after tomorrow, 19 January, Saturday

    Time Temperature Precipitation Wind Pressure Humidity
    00:00 +27°C° 0 mm 7 mps 752 mmHg 80%
    01:00 +26°C° 0 mm 7 mps 752 mmHg 81%
    02:00 +26°C° 0 mm 7 mps 752 mmHg 82%
    03:00 +26°C° 0 mm 7 mps 751 mmHg 83%
    04:00 +26°C° 0 mm 7 mps 751 mmHg 83%
    05:00 +26°C° 0 mm 6 mps 751 mmHg 83%
    06:00 +26°C° 0 mm 6 mps 752 mmHg 84%
    07:00 +26°C° 0 mm 6 mps 752 mmHg 84%
    08:00 +27°C° 0 mm 7 mps 752 mmHg 79%
    09:00 +29°C° 0 mm 7 mps 753 mmHg 74%
    10:00 +30°C° 0 mm 7 mps 753 mmHg 69%
    11:00 +32°C° 0 mm 7 mps 753 mmHg 67%
    12:00 +32°C° 0 mm 7 mps 752 mmHg 64%
    13:00 +33°C° 0 mm 6 mps 752 mmHg 62%
    14:00 +33°C° 0 mm 6 mps 751 mmHg 62%
    15:00 +33°C° 0 mm 6 mps 750 mmHg 62%
    16:00 +33°C° 0 mm 7 mps 749 mmHg 62%
    17:00 +32°C° 0 mm 6 mps 750 mmHg 66%
    18:00 +29°C° 0 mm 6 mps 750 mmHg 70%
    19:00 +28°C° 0 mm 6 mps 750 mmHg 74%
    20:00 +28°C° 0 mm 6 mps 751 mmHg 76%
    21:00 +27°C° 0 mm 6 mps 752 mmHg 78%
    22:00 +27°C° 0 mm 6 mps 752 mmHg 80%
    23:00 +27°C° 0 mm 5 mps 752 mmHg 82%

    20 January, Sunday

    Time Temperature Precipitation Wind Pressure Humidity
    00:00 +27°C° 0 mm 5 mps 752 mmHg 83%
    01:00 +26°C° 0 mm 4 mps 752 mmHg 84%
    02:00 +26°C° 0 mm 4 mps 751 mmHg 85%
    03:00 +26°C° 0 mm 4 mps 751 mmHg 86%
    04:00 +26°C° 0 mm 4 mps 751 mmHg 87%
    05:00 +26°C° 0 mm 4 mps 751 mmHg 87%
    06:00 +26°C° 0 mm 4 mps 752 mmHg 88%
    07:00 +26°C° 0 mm 4 mps 752 mmHg 88%
    08:00 +27°C° 0 mm 5 mps 752 mmHg 82%
    09:00 +29°C° 0 mm 6 mps 753 mmHg 76%
    10:00 +30°C° 0 mm 6 mps 754 mmHg 70%
    11:00 +32°C° 0 mm 6 mps 753 mmHg 66%
    12:00 +33°C° 0 mm 6 mps 752 mmHg 63%
    13:00 +34°C° 0 mm 6 mps 752 mmHg 60%
    14:00 +34°C° 0.1 mm 7 mps 751 mmHg 61%
    15:00 +33°C° 0.1 mm 7 mps 751 mmHg 62%
    16:00 +33°C° 0.1 mm 7 mps 750 mmHg 62%
    17:00 +32°C° 0 mm 8 mps 750 mmHg 66%
    18:00 +29°C° 0 mm 8 mps 751 mmHg 70%
    19:00 +28°C° 0 mm 8 mps 751 mmHg 74%
    20:00 +28°C° 0 mm 8 mps 752 mmHg 75%
    21:00 +28°C° 0 mm 8 mps 752 mmHg 77%
    22:00 +28°C° 0 mm 8 mps 753 mmHg 78%
    23:00 +28°C° 0 mm 8 mps 753 mmHg 78%

    21 January, Monday

    Time Temperature Precipitation Wind Pressure Humidity
    00:00 +28°C° 0 mm 8 mps 753 mmHg 77%
    01:00 +28°C° 0 mm 9 mps 753 mmHg 77%
    02:00 +27°C° 0 mm 9 mps 752 mmHg 77%
    03:00 +27°C° 0 mm 9 mps 752 mmHg 77%
    04:00 +27°C° 0 mm 9 mps 752 mmHg 77%
    05:00 +27°C° 0 mm 9 mps 752 mmHg 78%
    06:00 +27°C° 0 mm 9 mps 753 mmHg 78%
    07:00 +27°C° 0 mm 9 mps 753 mmHg 78%
    08:00 +28°C° 0 mm 9 mps 753 mmHg 74%
    09:00 +29°C° 0 mm 10 mps 754 mmHg 71%
    10:00 +31°C° 0 mm 10 mps 754 mmHg 67%
    11:00 +32°C° 0 mm 10 mps 754 mmHg 64%
    12:00 +32°C° 0 mm 9 mps 753 mmHg 62%
    13:00 +33°C° 0 mm 9 mps 753 mmHg 59%
    14:00 +33°C° 0 mm 9 mps 752 mmHg 59%
    15:00 +33°C° 0 mm 9 mps 751 mmHg 59%
    16:00 +32°C° 0 mm 10 mps 750 mmHg 59%
    17:00 +31°C° 0 mm 10 mps 751 mmHg 63%
    18:00 +29°C° 0 mm 10 mps 751 mmHg 67%
    19:00 +28°C° 0 mm 10 mps 751 mmHg 71%
    20:00 +27°C° 0 mm 10 mps 752 mmHg 73%
    21:00 +27°C° 0 mm 10 mps 752 mmHg 74%
    22:00 +27°C° 0 mm 9 mps 753 mmHg 76%
    23:00 +27°C° 0 mm 9 mps 753 mmHg 76%

    22 January, Tuesday

    Time Temperature Precipitation Wind Pressure Humidity
    00:00 +27°C° 0 mm 9 mps 753 mmHg 77%
    01:00 +27°C° 0 mm 9 mps 752 mmHg 78%
    02:00 +27°C° 0 mm 9 mps 752 mmHg 78%
    03:00 +27°C° 0 mm 9 mps 752 mmHg 78%
    04:00 +27°C° 0 mm 9 mps 752 mmHg 78%
    05:00 +27°C° 0 mm 8 mps 752 mmHg 79%
    06:00 +27°C° 0 mm 8 mps 752 mmHg 79%
    07:00 +27°C° 0 mm 8 mps 753 mmHg 79%
    08:00 +28°C° 0 mm 9 mps 753 mmHg 75%
    09:00 +29°C° 0 mm 9 mps 753 mmHg 71%
    10:00 +31°C° 0 mm 9 mps 753 mmHg 66%
    11:00 +32°C° 0 mm 9 mps 753 mmHg 64%
    12:00 +32°C° 0 mm 8 mps 752 mmHg 62%
    13:00 +33°C° 0 mm 8 mps 752 mmHg 59%
    14:00 +33°C° 0 mm 8 mps 751 mmHg 59%
    15:00 +33°C° 0 mm 8 mps 750 mmHg 59%
    16:00 +33°C° 0 mm 8 mps 750 mmHg 59%
    17:00 +32°C° 0 mm 8 mps 750 mmHg 64%
    18:00 +29°C° 0 mm 8 mps 750 mmHg 68%
    19:00 +28°C° 0 mm 8 mps 751 mmHg 72%
    20:00 +28°C° 0 mm 8 mps 751 mmHg 74%
    21:00 +28°C° 0 mm 8 mps 752 mmHg 76%
    22:00 +27°C° 0 mm 8 mps 752 mmHg 78%
    23:00 +27°C° 0 mm 7 mps 752 mmHg 79%
    Show more